User: anonymous
Location: Sewell
(39.7660°N, 75.1450°W)
Time: 03:40:40
(UTC-04:00)
Language:

ISS - Orbit

View from above orbital plane
View from above orbital plane
View from above satellite
View from above satellite

Ground track
Ground track

The orbit data is extracted from the following two-line orbital elements,

1 25544U 98067A   14113.19417330  .00041133  00000-0  71658-3 0  1363
2 25544 051.6503 012.1234 0003946 318.9694 176.4085 15.50324370882792
Epoch (UTC): 23 April 2014 04:39:36
Eccentricity: 0.0003946
inclination: 51.6503°
perigee height: 413 km
apogee height: 418 km
right ascension of ascending node: 12.1234°
argument of perigee: 318.9694°
revolutions per day: 15.50324370
mean anomaly at epoch: 176.4085°
orbit number at epoch: 88279

The dashed part of the orbit path shows where the satellite is in the earth's shadow,  

DLR